White Plains, CT

5:34 PM EDT on June 23, 2017 (GMT -0400)
Westchester County

Weather History for KHPN - October, 2013

Change the Weather History Date:

Sunday, October 6, 2013

  Actual Average Record
Temperature  
Mean Temperature 63 °F -  
Max Temperature 64 °F 63 °F 86 °F (1997)
Min Temperature 62 °F 46 °F 33 °F (1984)
Degree Days  
Heating Degree Days 2    
Growing Degree Days 13 (Base 50)    
Moisture  
Dew Point 63 °F    
Average Humidity 96    
Maximum Humidity 100    
Minimum Humidity 93    
Precipitation  
Precipitation 0.01 in - - ()
Sea Level Pressure  
Sea Level Pressure 30.08 in    
Wind  
Wind Speed 7 mph (ESE)    
Max Wind Speed 12 mph    
Max Gust Speed 18 mph    
Visibility 1 miles    
Events Fog , Rain    
Averages and records for this station are not official NWS values.
T = Trace of Precipitation, MM = Missing Value Source: NWS Daily Summary

Daily Weather History Graph

Daily Weather History Graph

Search for Another Location

Airport or City:

Trip Planner

Search our weather history database for the weather conditions in past years. The results will help you decide how hot, cold, wet, or windy it might be!

Date:

Astronomy

Oct. 06, 2013 Rise Set
Actual Time 6:56 AM EDT 6:28 PM EDT
Civil Twilight 6:29 AM EDT 6:55 PM EDT
Nautical Twilight 5:57 AM EDT 7:27 PM EDT
Astronomical Twilight 5:25 AM EDT 7:59 PM EDT
Moon 8:39 AM EDT (10/6) 7:24 PM EDT (10/6)
Length of Visible Light 12h 26m
Length of Day
11h 31m
Waxing Crescent, 3% of the Moon is Illuminated
Oct 6
Waxing Crescent
Oct 11
First Quarter
Oct 18
Full
Oct 26
Last Quarter
Nov 3
New

Hourly Weather History & Observations

Time (EDT) Temp. Dew Point Humidity Pressure Visibility Wind Dir Wind Speed Gust Speed Precip Events Conditions
12:56 AM 64.0 °F 62.1 °F 93% 30.08 in 4.0 mi South 4.6 mph - N/A   Overcast
1:56 AM 64.0 °F 62.1 °F 93% 30.08 in 4.0 mi SSE 5.8 mph - N/A   Overcast
2:56 AM 64.0 °F 62.1 °F 93% 30.08 in 4.0 mi SSE 4.6 mph - N/A   Overcast
3:56 AM 64.0 °F 62.1 °F 93% 30.06 in 3.0 mi SE 5.8 mph - N/A   Overcast
4:30 AM 64.4 °F 62.6 °F 94% 30.07 in 0.8 mi East 4.6 mph - N/A   Overcast
4:56 AM 63.0 °F 62.1 °F 97% 30.06 in 1.2 mi ESE 6.9 mph - N/A   Mist
5:56 AM 63.0 °F 62.1 °F 97% 30.07 in 1.5 mi SE 8.1 mph - N/A   Mist
6:56 AM 63.0 °F 62.1 °F 97% 30.09 in 0.2 mi ESE 5.8 mph - N/A Fog Fog
7:56 AM 64.0 °F 62.1 °F 93% 30.08 in 0.5 mi ESE 9.2 mph - N/A Fog Fog
8:56 AM 64.0 °F 63.0 °F 96% 30.10 in 0.5 mi SE 6.9 mph - N/A Fog Fog
9:56 AM 64.0 °F 63.0 °F 96% 30.11 in 0.5 mi ESE 11.5 mph - N/A Fog Fog
10:56 AM 64.0 °F 63.0 °F 96% 30.11 in 0.8 mi ESE 8.1 mph - N/A   Overcast
11:56 AM 64.0 °F 62.1 °F 93% 30.11 in 0.8 mi ESE 9.2 mph - 0.00 in   Light Drizzle
12:56 PM 64.0 °F 62.1 °F 93% 30.10 in 0.8 mi ESE 8.1 mph - 0.00 in Rain Light Rain
1:56 PM 63.0 °F 62.1 °F 97% 30.09 in 1.0 mi ESE 10.4 mph - 0.01 in Rain Light Rain
2:56 PM 63.0 °F 62.1 °F 97% 30.08 in 1.0 mi East 6.9 mph 16.1 mph 0.00 in Rain Light Rain
3:56 PM 63.0 °F 62.1 °F 97% 30.08 in 1.0 mi East 9.2 mph - 0.00 in Rain Light Rain
4:56 PM 63.0 °F 62.1 °F 97% 30.07 in 0.5 mi East 8.1 mph - 0.00 in Rain Light Rain
5:56 PM 63.0 °F 62.1 °F 97% 30.07 in 0.2 mi ESE 9.2 mph - 0.00 in Fog Fog
6:56 PM 63.0 °F 62.1 °F 97% 30.07 in 0.2 mi ESE 10.4 mph 17.3 mph 0.00 in Fog , Rain Light Rain
7:13 PM 62.6 °F 62.6 °F 100% 30.08 in 0.2 mi ESE 9.2 mph - 0.00 in Fog , Rain Light Rain
7:29 PM 62.6 °F 62.6 °F 100% 30.08 in 0.2 mi East 9.2 mph - 0.00 in Fog , Rain Light Rain
7:56 PM 63.0 °F 63.0 °F 100% 30.08 in 0.2 mi East 8.1 mph 18.4 mph 0.00 in Fog , Rain Light Rain
8:56 PM 64.0 °F 63.0 °F 96% 30.07 in 0.0 mi East 10.4 mph 17.3 mph 0.00 in Fog Fog
9:12 PM 64.4 °F 62.6 °F 94% 30.07 in 0.0 mi ESE 9.2 mph - N/A Fog Fog
9:56 PM 64.0 °F 64.0 °F 100% 30.06 in 0.2 mi East 9.2 mph - N/A Fog Fog
10:56 PM 64.0 °F 64.0 °F 100% 30.06 in 0.5 mi East 9.2 mph - N/A Fog Fog
11:56 PM 64.9 °F 64.0 °F 97% 30.05 in 0.5 mi ESE 6.9 mph - N/A Fog Fog